Location: Pl�tzky
(52.0521°N, 11.8020°E)
Time: 23:58:40
(UTC+00:00)

SeaSat 1 - Pass Details

Date: 22 November 2019
Orbit: 745 x 747 km, 108.0° (Epoch: 09 December)

Event Time Altitude Azimuth Distance (km) Brightness Sun altitude
Rises 16:33:06 0° 130° (SE) 3,181 5.4 -11.9°
Reaches altitude 10° 16:35:23 10° 126° (SE) 2,261 4.6 -12.3°
Maximum altitude 16:40:09 52° 51° (NE) 932 2.6 -13.0°
Drops below altitude 10° 16:44:56 10° 336° (NNW) 2,276 5.1 -13.7°
Sets 16:47:15 0° 332° (NNW) 3,204 5.9 -14.0°
